Location: Ajisawe
(8.4333°N, 4.3833°E)
Time: 20:44:35
(UTC+00:00)

STARLINK-1146 - Pass Details

Date: 08 October 2020
Orbit: 549 x 550 km, 53.0° (Epoch: 29 October)

Event Time Altitude Azimuth Distance (km) Brightness Sun altitude
Rises 19:01:56 0° 308° (NW) 2,704 7.9 -23.6°
Reaches altitude 10° 19:04:23 10° 296° (WNW) 1,812 7.1 -24.2°
Maximum altitude 19:07:54 27° 237° (WSW) 1,061 5.6 -25.1°
Enters shadow 19:10:24 16° 187° (S) 1,485 5.9 -25.7°
